Terug naar catalogus

STARLINK-35225

ActiefCommunicatieVLEO
NORAD 65626·PAYLOAD·🇺🇸 United States

Gelanceerd Sep 18, 2025 vanaf Cape Canaveral Space Force Station

Loading…

Volgende Passages (komende 24 uur)

TLE

VersSource: CelesTrak SupGP

Epoch: Sep 15, 2026, 03:29 UTC

1 65626C 25210E   26258.14562500  .00048459  00000+0  14317-2 0  2586
2 65626  53.1564 142.7382 0001249  81.3652 108.8351 15.34366379    13

Volg STARLINK-35225 in realtime met AllMySat

Download on the App Store